KLM89V EHAM-EGLL

Flight info

Callsign KLM89V
Flight time 0h 49m
Altitude 24000
Route IDRID L980 LOGAN
Aircraft B737/M-SDE2E3FGHIRWXY/LB1

Departure

Time 2026-04-30 18:08
Airport Amsterdam Airport Schiphol (EHAM)

Arrival

Time 2026-04-30 18:57
Airport London Heathrow Airport (EGLL)
Time Latitude Longitude Altitude Speed Heading
2026-04-30 17:48 52.30782 4.77356 -2 ft 0 kts 183°
2026-04-30 17:55 52.30822 4.77381 -2 ft 3 kts 146°
2026-04-30 17:56 52.30836 4.77341 -2 ft 1 kts 109°
2026-04-30 17:59 52.30836 4.77367 -2 ft 0 kts 91°
2026-04-30 18:00 52.30913 4.77612 -2 ft 13 kts
2026-04-30 18:00 52.31235 4.77641 -2 ft 15 kts
2026-04-30 18:01 52.31454 4.77631 -2 ft 18 kts 334°
2026-04-30 18:02 52.31566 4.77037 -2 ft 19 kts 266°
2026-04-30 18:02 52.31545 4.76416 -2 ft 17 kts 266°
2026-04-30 18:03 52.31525 4.75859 -2 ft 16 kts 266°
2026-04-30 18:04 52.31504 4.75221 -2 ft 19 kts 266°
2026-04-30 18:05 52.31565 4.74662 -2 ft 0 kts 356°
2026-04-30 18:06 52.31667 4.74784 -2 ft 7 kts 85°
2026-04-30 18:07 52.31721 4.76346 -2 ft 125 kts 86°
2026-04-30 18:08 52.32088 4.81242 1553 ft 151 kts 60°
2026-04-30 18:09 52.37503 4.79804 3596 ft 251 kts 341°
2026-04-30 18:10 52.43283 4.71584 6206 ft 301 kts 315°
2026-04-30 18:11 52.46743 4.59672 9908 ft 306 kts 268°
2026-04-30 18:11 52.43959 4.50410 11234 ft 344 kts 210°
2026-04-30 18:12 52.39463 4.40539 13090 ft 377 kts 238°
2026-04-30 18:13 52.36548 4.33401 14660 ft 382 kts 231°
2026-04-30 18:13 52.32322 4.23884 16873 ft 390 kts 231°
2026-04-30 18:14 52.28609 4.15446 18652 ft 400 kts 231°
2026-04-30 18:15 52.23686 4.04208 20662 ft 411 kts 232°
2026-04-30 18:15 52.18617 3.92668 22563 ft 423 kts 232°
2026-04-30 18:16 52.15153 3.84812 23804 ft 431 kts 232°
2026-04-30 18:16 52.11623 3.76831 24255 ft 435 kts 232°
2026-04-30 18:17 52.09875 3.72886 24277 ft 435 kts 232°
2026-04-30 18:17 52.08108 3.68907 24281 ft 435 kts 232°
2026-04-30 18:17 52.04561 3.60938 24277 ft 435 kts 232°
2026-04-30 18:18 52.02780 3.56945 24277 ft 435 kts 232°
2026-04-30 18:18 52.01002 3.52966 24279 ft 435 kts 232°
2026-04-30 18:18 51.99222 3.48988 24270 ft 435 kts 232°
2026-04-30 18:18 51.97439 3.45011 24279 ft 435 kts 232°
2026-04-30 18:19 51.95659 3.41045 24274 ft 435 kts 232°
2026-04-30 18:19 51.93877 3.37081 24268 ft 435 kts 232°
2026-04-30 18:19 51.92112 3.33160 24270 ft 435 kts 232°
2026-04-30 18:19 51.90305 3.29150 24271 ft 435 kts 232°
2026-04-30 18:20 51.88542 3.25247 24276 ft 434 kts 232°
2026-04-30 18:20 51.86809 3.21249 24262 ft 433 kts 237°
2026-04-30 18:20 51.85478 3.16867 24273 ft 436 kts 247°
2026-04-30 18:20 51.84570 3.12175 24262 ft 439 kts 256°
2026-04-30 18:21 51.84128 3.07285 24272 ft 440 kts 262°
2026-04-30 18:21 51.83836 3.02364 24253 ft 440 kts 263°
2026-04-30 18:21 51.83565 2.97436 24253 ft 440 kts 263°
2026-04-30 18:21 51.83284 2.92508 24248 ft 440 kts 263°
2026-04-30 18:22 51.82983 2.87589 24242 ft 440 kts 263°
2026-04-30 18:22 51.82341 2.77749 24244 ft 440 kts 262°
2026-04-30 18:22 51.82012 2.72831 24244 ft 439 kts 262°
2026-04-30 18:23 51.81682 2.67913 24243 ft 439 kts 262°
2026-04-30 18:23 51.81350 2.63016 24243 ft 439 kts 262°
2026-04-30 18:23 51.81012 2.58106 24242 ft 439 kts 262°
2026-04-30 18:23 51.80672 2.53194 24240 ft 439 kts 262°
2026-04-30 18:24 51.79988 2.43388 24231 ft 439 kts 262°
2026-04-30 18:24 51.79643 2.38487 24235 ft 439 kts 262°
2026-04-30 18:24 51.79303 2.33656 24237 ft 439 kts 262°
2026-04-30 18:25 51.78955 2.28758 24231 ft 439 kts 262°
2026-04-30 18:25 51.78269 2.18945 24230 ft 439 kts 262°
2026-04-30 18:25 51.77975 2.14049 24228 ft 439 kts 263°
2026-04-30 18:26 51.77417 2.04223 24225 ft 439 kts 263°
2026-04-30 18:26 51.77133 1.99314 24225 ft 439 kts 263°
2026-04-30 18:26 51.76844 1.94410 24222 ft 439 kts 262°
2026-04-30 18:27 51.76252 1.84599 24225 ft 439 kts 262°
2026-04-30 18:27 51.75952 1.79710 24225 ft 439 kts 262°
2026-04-30 18:28 51.75346 1.69910 24222 ft 439 kts 262°
2026-04-30 18:28 51.75040 1.65013 24224 ft 439 kts 262°
2026-04-30 18:28 51.74418 1.55221 24223 ft 438 kts 262°
2026-04-30 18:29 51.74102 1.50338 24218 ft 434 kts 262°
2026-04-30 18:29 51.73210 1.36633 24203 ft 383 kts 261°
2026-04-30 18:30 51.72758 1.29784 24187 ft 357 kts 261°
2026-04-30 18:30 51.72112 1.20259 21878 ft 386 kts 261°
2026-04-30 18:31 51.71812 1.15873 20691 ft 400 kts 261°
2026-04-30 18:31 51.71200 1.06842 19066 ft 404 kts 261°
2026-04-30 18:32 51.70605 0.98117 17345 ft 387 kts 261°
2026-04-30 18:32 51.70306 0.93827 16533 ft 382 kts 261°
2026-04-30 18:32 51.69721 0.85428 15703 ft 377 kts 261°
2026-04-30 18:33 51.69421 0.81171 15456 ft 385 kts 261°
2026-04-30 18:33 51.68819 0.72600 14958 ft 382 kts 261°
2026-04-30 18:33 51.68518 0.68355 14721 ft 381 kts 261°
2026-04-30 18:34 51.68213 0.64104 14487 ft 381 kts 261°
2026-04-30 18:34 51.67622 0.55860 14111 ft 356 kts 260°
2026-04-30 18:34 51.67341 0.51964 14009 ft 341 kts 260°
2026-04-30 18:35 51.67075 0.48302 13909 ft 327 kts 260°
2026-04-30 18:35 51.66812 0.44717 13508 ft 323 kts 260°
2026-04-30 18:35 51.66547 0.41139 13205 ft 317 kts 259°
2026-04-30 18:36 51.66032 0.34188 12776 ft 310 kts 259°
2026-04-30 18:36 51.65773 0.30734 12583 ft 310 kts 259°
2026-04-30 18:36 51.65258 0.23849 12190 ft 309 kts 259°
2026-04-30 18:37 51.65088 0.21580 12044 ft 304 kts 259°
2026-04-30 18:37 51.64837 0.18238 11894 ft 294 kts 259°
2026-04-30 18:37 51.64596 0.15036 11812 ft 282 kts 259°
2026-04-30 18:37 51.64346 0.10942 11500 ft 276 kts 261°
2026-04-30 18:38 51.64182 0.07893 11318 ft 270 kts 261°
2026-04-30 18:38 51.64075 0.05876 11194 ft 266 kts 261°
2026-04-30 18:38 51.63918 0.02931 11020 ft 264 kts 261°
2026-04-30 18:38 51.63757 -0.00023 10859 ft 265 kts 261°
2026-04-30 18:39 51.63593 -0.02976 10694 ft 265 kts 261°
2026-04-30 18:39 51.63431 -0.05895 10537 ft 264 kts 261°
2026-04-30 18:39 51.63264 -0.08881 10414 ft 265 kts 261°
2026-04-30 18:39 51.63099 -0.11800 10254 ft 265 kts 261°
2026-04-30 18:40 51.62931 -0.14752 10086 ft 264 kts 260°
2026-04-30 18:40 51.62764 -0.17696 9907 ft 263 kts 260°
2026-04-30 18:40 51.62596 -0.20623 9723 ft 262 kts 261°
2026-04-30 18:40 51.62428 -0.23533 9565 ft 260 kts 261°
2026-04-30 18:41 51.62263 -0.26392 9405 ft 260 kts 261°
2026-04-30 18:41 51.62092 -0.29332 9243 ft 259 kts 261°
2026-04-30 18:41 51.61923 -0.32220 9002 ft 259 kts 261°
2026-04-30 18:41 51.61754 -0.35105 8843 ft 259 kts 261°
2026-04-30 18:42 51.61586 -0.37988 8677 ft 258 kts 262°
2026-04-30 18:42 51.62244 -0.43774 7947 ft 270 kts 281°
2026-04-30 18:42 51.62716 -0.46685 7542 ft 273 kts 282°
2026-04-30 18:45 51.67512 -0.75342 4213 ft 239 kts 282°
2026-04-30 18:45 51.67963 -0.77904 3951 ft 237 kts 282°
2026-04-30 18:45 51.68404 -0.80403 3943 ft 228 kts 282°
2026-04-30 18:46 51.68828 -0.82853 3994 ft 225 kts 276°
2026-04-30 18:46 51.68727 -0.85243 4007 ft 208 kts 240°
2026-04-30 18:46 51.67875 -0.86918 3984 ft 185 kts 203°
2026-04-30 18:46 51.66689 -0.87488 4008 ft 176 kts 186°
2026-04-30 18:47 51.65506 -0.87799 3997 ft 173 kts 185°
2026-04-30 18:47 51.64321 -0.88093 3990 ft 172 kts 185°
2026-04-30 18:47 51.63136 -0.88385 3994 ft 171 kts 185°
2026-04-30 18:47 51.61970 -0.88673 4002 ft 169 kts 185°
2026-04-30 18:48 51.60821 -0.88961 3998 ft 165 kts 185°
2026-04-30 18:48 51.59678 -0.89246 4005 ft 167 kts 184°
2026-04-30 18:48 51.58530 -0.89538 4002 ft 168 kts 185°
2026-04-30 18:48 51.57369 -0.89839 3995 ft 169 kts 185°
2026-04-30 18:49 51.56207 -0.90143 3991 ft 169 kts 185°
2026-04-30 18:49 51.55063 -0.90440 3927 ft 163 kts 185°
2026-04-30 18:49 51.53943 -0.90730 3610 ft 164 kts 184°
2026-04-30 18:49 51.52819 -0.90827 3277 ft 159 kts 160°
2026-04-30 18:50 51.51961 -0.89800 3066 ft 158 kts 128°
2026-04-30 18:50 51.51258 -0.88395 3041 ft 164 kts 130°
2026-04-30 18:50 51.50544 -0.86978 2993 ft 162 kts 130°
2026-04-30 18:50 51.49849 -0.85590 2989 ft 158 kts 130°
2026-04-30 18:51 51.49169 -0.84217 2985 ft 156 kts 130°
2026-04-30 18:51 51.48501 -0.82862 2993 ft 158 kts 129°
2026-04-30 18:51 51.47865 -0.81394 2973 ft 161 kts 112°
2026-04-30 18:51 51.47798 -0.79595 3001 ft 163 kts 96°
2026-04-30 18:52 51.47755 -0.77780 3003 ft 163 kts 98°
2026-04-30 18:52 51.47725 -0.76007 2989 ft 155 kts 96°
2026-04-30 18:52 51.47714 -0.74303 2985 ft 150 kts 96°
2026-04-30 18:52 51.47710 -0.72662 2974 ft 149 kts 96°
2026-04-30 18:53 51.47709 -0.70957 2833 ft 154 kts 95°
2026-04-30 18:53 51.47710 -0.69256 2653 ft 150 kts 95°
2026-04-30 18:53 51.47671 -0.67636 2378 ft 144 kts 101°
2026-04-30 18:53 51.47520 -0.66052 2058 ft 143 kts 103°
2026-04-30 18:54 51.47321 -0.64489 1812 ft 142 kts 104°
2026-04-30 18:54 51.47097 -0.62960 1600 ft 143 kts 105°
2026-04-30 18:54 51.46846 -0.61423 1501 ft 139 kts 105°
2026-04-30 18:54 51.46641 -0.60002 1433 ft 126 kts 102°
2026-04-30 18:55 51.46509 -0.58615 1248 ft 127 kts 97°
2026-04-30 18:55 51.46449 -0.55672 889 ft 140 kts 90°
2026-04-30 18:55 51.46460 -0.54117 755 ft 135 kts 90°
2026-04-30 18:56 51.46467 -0.51217 393 ft 131 kts 89°
2026-04-30 18:56 51.46471 -0.49758 277 ft 130 kts 89°
2026-04-30 18:56 51.46478 -0.48286 125 ft 133 kts 89°
2026-04-30 18:57 51.46486 -0.45997 87 ft 47 kts 89°
2026-04-30 18:57 51.46471 -0.45674 86 ft 25 kts 104°
2026-04-30 18:57 51.46422 -0.45472 88 ft 11 kts 115°
2026-04-30 18:58 51.46318 -0.45362 90 ft 9 kts 115°
2026-04-30 18:58 51.46316 -0.45257 89 ft 11 kts 90°
2026-04-30 18:58 51.46317 -0.45127 88 ft 13 kts 89°
2026-04-30 18:59 51.46317 -0.44781 86 ft 17 kts 90°
2026-04-30 19:00 51.46324 -0.44262 87 ft 12 kts 105°
2026-04-30 19:00 51.46248 -0.44247 88 ft 13 kts 203°
2026-04-30 19:00 51.46102 -0.44348 86 ft 8 kts 203°
2026-04-30 19:01 51.46101 -0.44456 87 ft 4 kts 294°
2026-04-30 19:01 51.46108 -0.44481 86 ft 1 kts 294°
2026-04-30 19:02 51.46108 -0.44482 86 ft 0 kts 294°